{"data":{"norad_id":68766,"epoch":"2026-09-20T21:54:33.517152Z","epoch_age_seconds":98109,"freshness":"FRESH","line1":"1 68766U 26086A   26263.91288793  .00010851  00000+0  33801-3 0  9993","line2":"2 68766  97.2852 299.4138 0001073  94.5098 265.6268 15.33439006 23756","mean_motion":15.33439006,"eccentricity":0.0001073,"inclination_deg":97.2852,"raan_deg":299.4138,"arg_perigee_deg":94.5098,"mean_anomaly_deg":265.6268,"bstar":0.00033801,"rev_number":2375,"period_min":93.90657172314,"perigee_km":464.82667966678,"apogee_km":466.29533725939,"semimajor_km":6843.6980084631,"source":"CELESTRAK","updated_at":"2026-09-21T09:00:36.643270Z"}}